Location: Washington
(38.8950°N, 77.0370°W)
Time: 04:53:14
(UTC-04:00)

Amateur Radio Satellites - All Passes

Search period start: 01 November 2014 04:23
Search period end: 02 November 2014 03:23
Location: Washington, 38.8950°N, 77.0370°W

Satellite Date Start Highest point End Downlink Frequencies (MHz)
Time Altitude Azimuth
RS-15 01 Nov 04:39:47 04:49:23 32° 37° (NE) 04:59:15 29.354 - 29.394 USB, Beacon 29.352 USB
PANSAT 01 Nov 04:47:48 04:50:07 15° 172° (S) 04:52:27 not established
AO-27 01 Nov 04:51:30 04:54:54 18° 297° (WNW) 04:58:18 436.795 MHz FM
Gurwin Techsat 1B 01 Nov 05:10:03 05:14:05 22° 295° (WNW) 05:18:06 435.225 FM
TMSAT-1 01 Nov 05:15:46 05:20:05 26° 294° (WNW) 05:24:24 436.925 FM
OPAL 01 Nov 05:17:59 05:23:02 63° 71° (ENE) 05:28:01 ?
Saudisat 1A 01 Nov 05:18:00 05:21:47 29° 113° (ESE) 05:25:35 436.775 MHz
STRAND 1 01 Nov 05:40:18 05:42:07 12° 60° (ENE) 05:43:57 ?
Uosat F 01 Nov 05:42:32 05:47:37 86° 104° (ESE) 05:52:39 435.120 FM
JAS-2 01 Nov 05:46:51 05:53:58 36° 94° (E) 06:00:46 435.800 - 435.900 CW/SSB, 435.910 FM
AO-7 01 Nov 05:51:05 05:59:28 85° 289° (WNW) 06:07:49 29.400 - 29.500 MHz
Hamsat 01 Nov 06:26:55 06:30:49 35° 98° (E) 06:34:44 145.90 MHz
PANSAT 01 Nov 06:27:09 06:29:38 16° 185° (S) 06:32:06 not established
RS-15 01 Nov 06:51:54 07:03:09 85° 242° (WSW) 07:14:54 29.354 - 29.394 USB, Beacon 29.352 USB
Saudisat 1A 01 Nov 06:57:29 07:01:17 28° 310° (NW) 07:05:07 436.775 MHz
OPAL 01 Nov 06:59:35 07:02:16 14° 266° (W) 07:04:57 ?
STRAND 1 01 Nov 07:15:25 07:20:33 85° 256° (WSW) 07:25:45 ?
Uosat F 01 Nov 07:24:07 07:25:39 11° 300° (WNW) 07:27:10 435.120 FM
JAS-2 01 Nov 07:31:34 07:39:00 48° 292° (WNW) 07:46:11 435.800 - 435.900 CW/SSB, 435.910 FM
MaSat-1 01 Nov 07:33:46 07:35:55 26° 60° (ENE) 07:37:58 437.345 MHz
AO-7 01 Nov 07:45:44 07:51:04 19° 308° (NW) 07:56:25 29.400 - 29.500 MHz
Hamsat 01 Nov 08:03:37 08:06:30 18° 293° (WNW) 08:09:24 145.90 MHz
SO-67 01 Nov 08:20:25 08:23:52 76° 283° (WNW) 08:27:18 435.3500 MHz FM
RS-15 01 Nov 09:06:47 09:13:54 19° 260° (W) 09:21:14 29.354 - 29.394 USB, Beacon 29.352 USB
KITSAT 1 01 Nov 09:09:29 09:11:35 11° 98° (E) 09:13:40 435.175 FM
HO-68 01 Nov 09:19:36 09:25:54 32° 96° (E) 09:32:08 435.675 MHz FM
ISS 01 Nov 09:50:49 09:54:02 51° 137° (SE) 09:57:16 145.800 FM
UKube-1 01 Nov 10:13:06 10:16:50 27° 97° (E) 10:20:32 145.840 MHz, 145.915 MHz
ZACube-1 01 Nov 10:24:53 10:27:09 14° 92° (E) 10:29:24 437.345 MHz
Sapphire 01 Nov 10:41:54 10:46:06 22° 49° (NE) 10:50:16 437.095 MHz 1200 baud AX-25 AFSK
Oscar 11 01 Nov 10:46:51 10:51:09 67° 101° (ESE) 10:55:26 145.825 FM, Beacon 2401.500 USB
KITSAT 1 01 Nov 10:57:31 11:05:30 71° 115° (ESE) 11:13:32 435.175 FM
SO-50 01 Nov 10:58:41 11:03:00 51° 117° (ESE) 11:07:28 436.795 FM
PCSat 01 Nov 11:03:02 11:07:57 34° 54° (NE) 11:12:50 145.825 MHz
FUNcube-1 01 Nov 11:06:06 11:10:06 43° 99° (E) 11:14:03 145.950 - 145.970 MHz USB
HO-68 01 Nov 11:06:55 11:13:43 47° 293° (WNW) 11:20:29 435.675 MHz FM
ISS 01 Nov 11:28:15 11:30:54 22° 334° (NNW) 11:33:34 145.800 FM
UOSAT-12 01 Nov 11:40:16 11:42:03 12° 107° (ESE) 11:43:50 437.025 FM, 437.400 FM
UKube-1 01 Nov 11:49:20 11:52:54 25° 292° (WNW) 11:56:26 145.840 MHz, 145.915 MHz
ZACube-1 01 Nov 11:59:48 12:03:45 41° 287° (WNW) 12:07:39 437.345 MHz
Sapphire 01 Nov 12:24:33 12:29:52 56° 247° (WSW) 12:35:08 437.095 MHz 1200 baud AX-25 AFSK
Oscar 11 01 Nov 12:25:43 12:26:44 11° 297° (WNW) 12:27:45 145.825 FM, Beacon 2401.500 USB
SO-50 01 Nov 12:40:32 12:43:51 20° 315° (NW) 12:47:15 436.795 FM
FUNcube-1 01 Nov 12:43:47 12:46:06 15° 295° (WNW) 12:48:24 145.950 - 145.970 MHz USB
PCSat 01 Nov 12:46:30 12:51:18 33° 251° (WSW) 12:56:04 145.825 MHz
KITSAT 1 01 Nov 12:54:45 13:01:34 29° 316° (NW) 13:08:25 435.175 FM
Oscar 16 01 Nov 12:57:47 13:02:00 26° 67° (ENE) 13:06:14 437.025 USB, Beacon 2401.1428
JAS-1B 01 Nov 13:01:56 13:06:43 28° 65° (ENE) 13:11:31 435.800 - 435.900 CW/SSB
UOSAT-12 01 Nov 13:16:57 13:21:33 70° 303° (WNW) 13:26:16 437.025 FM, 437.400 FM
AO-Echo 01 Nov 13:24:43 13:28:41 24° 66° (ENE) 13:32:44 ?
Uribyol 2 01 Nov 13:32:42 13:36:51 24° 66° (ENE) 13:40:59 436.500 FM
ITAMSAT 1 01 Nov 13:40:43 13:45:02 27° 67° (ENE) 13:49:23 435.822 SSB
Saudisat 1A 01 Nov 13:45:48 13:49:03 20° 46° (NE) 13:52:17 436.775 MHz
Oscar 19 01 Nov 13:48:38 13:53:46 79° 75° (ENE) 13:58:55 437.125 CW, 437.150 USB
AO-27 01 Nov 14:27:34 14:32:46 76° 75° (ENE) 14:38:00 436.795 MHz FM
Oscar 16 01 Nov 14:36:30 14:41:11 35° 263° (W) 14:45:53 437.025 USB, Beacon 2401.1428
ISS 01 Nov 14:44:59 14:46:31 13° 15° (NNE) 14:48:03 145.800 FM
Gurwin Techsat 1B 01 Nov 14:49:09 14:54:23 63° 73° (ENE) 14:59:38 435.225 FM
JAS-1B 01 Nov 14:52:10 14:57:20 34° 263° (W) 15:02:28 435.800 - 435.900 CW/SSB
TMSAT-1 01 Nov 14:54:55 15:00:02 52° 72° (ENE) 15:05:11 436.925 FM
AO-7 01 Nov 14:58:19 15:04:42 26° 56° (NE) 15:11:05 29.400 - 29.500 MHz
UOSAT-12 01 Nov 15:01:10 15:02:35 11° 322° (NW) 15:04:00 437.025 FM, 437.400 FM
AO-Echo 01 Nov 15:02:33 15:07:10 39° 263° (W) 15:11:59 ?
Uribyol 2 01 Nov 15:11:11 15:16:04 40° 262° (W) 15:20:58 436.500 FM
Uosat F 01 Nov 15:19:26 15:21:26 12° 60° (ENE) 15:23:26 435.120 FM
ITAMSAT 1 01 Nov 15:19:36 15:24:21 35° 262° (W) 15:29:08 435.822 SSB
Saudisat 1A 01 Nov 15:24:36 15:28:51 48° 243° (WSW) 15:33:05 436.775 MHz
Oscar 19 01 Nov 15:32:26 15:33:40 11° 271° (W) 15:34:54 437.125 CW, 437.150 USB
JAS-2 01 Nov 16:00:51 16:03:48 13° 53° (NE) 16:06:53 435.800 - 435.900 CW/SSB, 435.910 FM
AO-27 01 Nov 16:10:58 16:12:48 12° 270° (W) 16:14:39 436.795 MHz FM
ISS 01 Nov 16:20:39 16:23:52 45° 34° (NE) 16:27:05 145.800 FM
Gurwin Techsat 1B 01 Nov 16:31:47 16:34:45 15° 269° (W) 16:37:44 435.225 FM
TMSAT-1 01 Nov 16:36:39 16:40:14 18° 268° (W) 16:43:49 436.925 FM
AO-7 01 Nov 16:48:28 16:56:43 73° 255° (WSW) 17:05:01 29.400 - 29.500 MHz
Uosat F 01 Nov 16:54:29 16:59:31 79° 257° (WSW) 17:04:35 435.120 FM
Hamsat 01 Nov 17:19:34 17:22:48 22° 69° (ENE) 17:26:02 145.90 MHz
OPAL 01 Nov 17:30:22 17:33:34 17° 95° (E) 17:36:45 ?
JAS-2 01 Nov 17:41:09 17:47:24 75° 74° (ENE) 17:54:33 435.800 - 435.900 CW/SSB, 435.910 FM
ISS 01 Nov 17:57:58 18:00:19 18° 229° (SW) 18:02:41 145.800 FM
AO-7 01 Nov 18:48:15 18:50:47 12° 272° (W) 18:53:19 29.400 - 29.500 MHz
SO-67 01 Nov 18:51:57 18:54:51 26° 72° (ENE) 18:57:45 435.3500 MHz FM
KITSAT 1 01 Nov 18:52:30 18:59:23 30° 45° (NE) 19:06:13 435.175 FM
Hamsat 01 Nov 18:55:01 18:58:36 27° 264° (W) 19:02:11 145.90 MHz
OPAL 01 Nov 19:07:56 19:12:43 50° 290° (WNW) 19:17:28 ?
RS-15 01 Nov 19:09:02 19:13:51 14° 97° (E) 19:18:38 29.354 - 29.394 USB, Beacon 29.352 USB
STRAND 1 01 Nov 19:27:37 19:32:21 36° 98° (E) 19:37:02 ?
JAS-2 01 Nov 19:29:21 19:33:20 17° 273° (W) 19:37:36 435.800 - 435.900 CW/SSB, 435.910 FM
SO-50 01 Nov 19:31:19 19:35:47 36° 51° (NE) 19:40:16 436.795 FM
HO-68 01 Nov 19:48:06 19:53:19 22° 58° (ENE) 19:58:33 435.675 MHz FM
UOSAT-12 01 Nov 20:10:01 20:11:28 11° 38° (NE) 20:12:54 437.025 FM, 437.400 FM
AO-40 01 Nov 20:20:46 22:31:36 33° 210° (SSW) 02:03:55 Beacon 2401.320
SO-67 01 Nov 20:25:45 20:27:49 15° 267° (W) 20:29:53 435.3500 MHz FM
KITSAT 1 01 Nov 20:47:24 20:55:25 69° 245° (WSW) 21:03:23 435.175 FM
STRAND 1 01 Nov 21:07:08 21:11:20 26° 294° (WNW) 21:15:31 ?
UKube-1 01 Nov 21:07:46 21:11:03 21° 67° (ENE) 21:14:22 145.840 MHz, 145.915 MHz
MaSat-1 01 Nov 21:07:58 21:10:06 14° 106° (ESE) 21:12:09 437.345 MHz
SO-50 01 Nov 21:12:06 21:16:13 28° 248° (WSW) 21:20:20 436.795 FM
RS-15 01 Nov 21:13:12 21:24:08 74° 116° (ESE) 21:35:00 29.354 - 29.394 USB, Beacon 29.352 USB
ZACube-1 01 Nov 21:21:10 21:22:55 12° 64° (ENE) 21:24:39 437.345 MHz
HO-68 01 Nov 21:33:11 21:40:19 71° 256° (WSW) 21:47:31 435.675 MHz FM
Oscar 11 01 Nov 21:40:34 21:44:40 44° 73° (ENE) 21:48:46 145.825 FM, Beacon 2401.500 USB
UOSAT-12 01 Nov 21:47:46 21:52:29 70° 57° (ENE) 21:57:06 437.025 FM, 437.400 FM
FUNcube-1 01 Nov 22:01:05 22:05:05 32° 71° (ENE) 22:09:02 145.950 - 145.970 MHz USB
MaSat-1 01 Nov 22:41:41 22:45:15 35° 298° (WNW) 22:48:29 437.345 MHz
UKube-1 01 Nov 22:43:08 22:47:02 32° 262° (W) 22:50:58 145.840 MHz, 145.915 MHz
KITSAT 1 01 Nov 22:47:34 22:49:19 11° 262° (W) 22:51:04 435.175 FM
ZACube-1 01 Nov 22:54:17 22:58:47 64° 259° (W) 23:03:12 437.345 MHz
Oscar 11 01 Nov 23:18:38 23:21:03 15° 268° (W) 23:23:29 145.825 FM, Beacon 2401.500 USB
RS-15 01 Nov 23:27:45 23:37:27 35° 320° (NW) 23:47:14 29.354 - 29.394 USB, Beacon 29.352 USB
UOSAT-12 01 Nov 23:30:13 23:31:59 12° 253° (WSW) 23:33:44 437.025 FM, 437.400 FM
FUNcube-1 01 Nov 23:37:57 23:41:28 22° 265° (W) 23:44:56 145.950 - 145.970 MHz USB
Sapphire 02 Nov 01:23:04 01:27:11 23° 106° (ESE) 01:31:20 437.095 MHz 1200 baud AX-25 AFSK
PCSat 02 Nov 01:43:32 01:48:29 38° 110° (ESE) 01:53:28 145.825 MHz
RS-15 02 Nov 01:48:06 01:54:36 17° 355° (N) 01:01:12 29.354 - 29.394 USB, Beacon 29.352 USB
Oscar 19 02 Nov 01:01:55 01:06:25 30° 96° (E) 01:10:54 437.125 CW, 437.150 USB
JAS-1B 02 Nov 01:33:59 01:41:19 65° 102° (ESE) 01:50:03 435.800 - 435.900 CW/SSB
AO-27 02 Nov 01:42:23 01:46:56 30° 96° (E) 01:51:27 436.795 MHz FM
Oscar 16 02 Nov 01:48:50 01:53:59 90° 109° (ESE) 01:59:06 437.025 USB, Beacon 2401.1428
Sapphire 02 Nov 02:05:04 02:10:15 47° 303° (WNW) 02:15:30 437.095 MHz 1200 baud AX-25 AFSK
Gurwin Techsat 1B 02 Nov 02:07:09 02:11:39 28° 95° (E) 02:16:08 435.225 FM
AO-Echo 02 Nov 02:10:29 02:15:50 77° 102° (ESE) 02:21:04 ?
TMSAT-1 02 Nov 02:12:41 02:16:50 23° 94° (E) 02:20:57 436.925 FM
Uribyol 2 02 Nov 02:24:47 02:30:00 81° 103° (ESE) 02:35:10 436.500 FM
PCSat 02 Nov 02:27:14 02:31:56 30° 308° (NW) 02:36:41 145.825 MHz
ITAMSAT 1 02 Nov 02:33:11 02:38:26 89° 284° (WNW) 02:43:37 435.822 SSB
Oscar 19 02 Nov 02:41:16 02:45:40 30° 292° (WNW) 02:50:05 437.125 CW, 437.150 USB
RS-15 02 Nov 03:03:43 03:12:37 26° 31° (NNE) 03:21:44 29.354 - 29.394 USB, Beacon 29.352 USB
